sat.trackr.live / text

‹ back to catalog

STARLINK-37112

NORAD 68707 · 2026-081J

PAYLOAD ACTIVE UNKNOWN

§ Identity

Operator
Country
US
Launch date
2026-04-14
Launch site
AFETR
Launch vehicle
Mass (kg)
RCS (m²)

Purposes: comms

External: N2YO · Heavens-Above · Gunter

§ Orbital elements

Epoch: 2026-05-25T03:04:17.681088Z

Period
92.94 min
Inclination
53.1597°
Eccentricity
0.0001114
Mean motion
15.49344478 rev/d
Perigee alt
417.9 km
Apogee alt
419.4 km
Semi-major
6,796.8 km
B*
6.8315e-4
RAAN
39.9320°
Arg perigee
93.6453°
Mean anomaly
266.4684°
Rev number
643

§ Raw data

STARLINK-371121 68707U 26081J   26145.12798242  .00037777  00000+0  68315-3 0  99942 68707  53.1597  39.9320 0001114  93.6453 266.4684 15.49344478  6431

JSON: /api/v1/satellites/68707 · /tle

For live sub-satellite position, see the globe view (requires WebGL).

§ Visibility from observer

Set your observer location to see the next 7 days of passes ≥ 10°. The values pass through the URL so the page stays shareable.

No JS? Fill the form by hand. The geolocation button needs JavaScript.